Regional Weather Roundup
Issued by NWS

Home | Current Version | Previous Version | Graphics & Text | Print | Product List | Glossary On
Versions: 1 2 3 4 5 6 7 8 9 10 11 12 13 14 15 16 17 18 19 20 21 22 23 24 25 26 27 28 29 30 31 32 33 34 35 36 37 38 39 40 41 42 43 44 45 46 47 48 49 50
000
ASUS43 KTOP 060708
RWRKS

WEATHER ROUNDUP FOR KANSAS
NATIONAL WEATHER SERVICE GOODLAND KS
100 AM CST TUE DEC 06 2016

NOTE:  "FAIR" INDICATES FEW OR NO CLOUDS BELOW 12,000 FEET WITH NO
SIGNIFICANT WEATHER AND/OR OBSTRUCTIONS TO VISIBILITY.

KSZ001>006-013>018-027>032-041>047-060800-
NORTHWEST KANSAS

CITY           SKY/WX    TMP DP  RH WIND       PRES   REMARKS
GOODLAND       CLEAR     18  10  71 NW16      29.96R WCI   3
HAYS           CLOUDY    31  20  63 N23       29.93R WCI  18
HILL CITY      CLEAR     29  16  58 N14       29.97R WCI  18
RUSSELL        CLOUDY    32  21  64 N21G26    29.91R WCI  20
$$

KSZ061>065-074>080-084>089-060800-
SOUTHWEST KANSAS

CITY           SKY/WX    TMP DP  RH WIND       PRES   REMARKS
DODGE CITY     CLEAR     30  20  66 N22G32    29.89R WCI  17
ELKHART          N/A     27   7  43 N13         N/A  WCI  16
GARDEN CITY    CLEAR     28  16  60 N22G31    29.91R WCI  14
GREAT BEND     CLEAR     32  25  75 N14       29.90R WCI  22
LIBERAL        CLEAR     34  16  47 N25G37    29.90R WCI  21
PRATT          CLEAR     32  28  84 N21G29    29.86R WCI  20
$$

KSZ066>073-081>083-090>101-060800-
SOUTHEAST KANSAS

CITY           SKY/WX    TMP DP  RH WIND       PRES   REMARKS
CHANUTE        FOG       32  31  96 N5        29.77S VSB 1/4
COFFEYVILLE    CLOUDY    35  35 100 CALM      29.78S FOG
HUTCHINSON     PTCLDY    38  32  79 N21G30      N/A  WCI  28
MEDICINE LODGE   N/A     38  33  82 N22G32    29.82R WCI  27
NEWTON         MOCLDY    37  33  85 N29G35    29.81R WCI  25
PARSONS        FOG       29  28  96 CALM      29.79R VSB 1/2
WICHITA INTL   CLOUDY    40  38  93 NW15      29.81R WCI  32
WICHITA JABRA  CLOUDY    38  38 100 NW12      29.80R WCI  30
WICHITA MCCONL CLOUDY    39  37  93 N12       29.80R WCI  32
WINFIELD       PTCLDY    31  30  96 N3        29.79R FOG
$$

KSZ007>012-019>026-033>040-048>060-102>105-060800-
NORTHEAST KANSAS

CITY           SKY/WX    TMP DP  RH WIND       PRES   REMARKS
CONCORDIA      CLOUDY    32  21  64 N13G28    29.92R WCI  22
EMPORIA        CLOUDY    35  35 100 NW9       29.80R FOG
LAWRENCE       CLOUDY    30  30 100 CALM      29.79R
MANHATTAN      CLOUDY    39  29  67 N12G25    29.86R WCI  32
MARYSVILLE     CLOUDY    34  27  75 N18G26    29.89R WCI  23
OLATHE IND     CLEAR     30  29  96 CALM      29.77F
OLATHE EXE     CLEAR     31  29  92 CALM      29.77S
SALINA         CLOUDY    37  26  64 N24       29.89R WCI  26
TOPEKA BILLARD CLOUDY    36  33  89 W3        29.80R
TOPEKA FORBES  CLOUDY    37  35  92 NW7       29.79R
$$




USA.gov is the U.S. government's official web portal to all federal, state and local government web resources and services.